Quinhagak|Kwinhagak Airport, AK

8:12 AM AKST on November 17, 2019 (GMT -0900)
Quinhagak

Weather History for PAQH - October, 2019

Change the Weather History Date:

Monday, October 14, 2019

  Actual Average (WUND) Record (WUND)
Temperature  
Mean Temperature 38 °F -  
Max Temperature 48 °F - - (-1)
Min Temperature 28 °F - - (-1)
Degree Days  
Heating Degree Days 27    
Moisture  
Dew Point 29 °F    
Average Humidity 71    
Maximum Humidity 88    
Minimum Humidity 56    
Precipitation  
Precipitation 0.00 in - - ()
Sea Level Pressure  
Sea Level Pressure 29.51 in    
Wind  
Wind Speed 10 mph ()    
Max Wind Speed 28 mph    
Max Gust Speed 37 mph    
Visibility 10.0 miles    
Events Rain    
Averages and records for this station are not official NWS values.
T = Trace of Precipitation, MM = Missing Value Source: Averaged Metar Reports

Daily Weather History Graph

Daily Weather History Graph

Search for Another Location

Airport or City:

Astronomy

Oct. 14, 2019 Rise Set
Actual Time 9:23 AM AKDT 7:41 PM AKDT
Civil Twilight 8:42 AM AKDT 8:23 PM AKDT
Nautical Twilight 7:54 AM AKDT 9:11 PM AKDT
Astronomical Twilight 7:05 AM AKDT 9:59 PM AKDT
Moon 8:31 PM AKDT (10/14) 10:07 AM AKDT (10/14)
Length of Visible Light 11h 41m
Length of Day
10h 17m
Full, 99% of the Moon is Illuminated
Oct 14
Full
Oct 21
Last Quarter
Oct 27
New
Nov 4
First Quarter
Nov 12
Full

Hourly Weather History & Observations

Time (AKDT) Temp. Windchill Dew Point Humidity Pressure Visibility Wind Dir Wind Speed Gust Speed Precip Events Conditions
12:56 AM 28.0 °F 21.7 °F 25.0 °F 88% 29.80 in 10.0 mi East 5.8 mph - N/A   Clear
1:56 AM 28.9 °F 22.8 °F 24.1 °F 82% 29.78 in 10.0 mi NE 5.8 mph - N/A   Clear
2:56 AM 28.9 °F - 24.1 °F 82% 29.76 in 10.0 mi Calm Calm - N/A   Clear
3:56 AM 30.9 °F 22.2 °F 25.0 °F 79% 29.75 in 10.0 mi East 10.4 mph - N/A   Clear
4:56 AM 30.0 °F 21.7 °F 25.0 °F 82% 29.73 in 10.0 mi East 9.2 mph - N/A   Clear
5:56 AM 28.0 °F 20.0 °F 25.0 °F 88% 29.70 in 10.0 mi ENE 8.1 mph - N/A   Clear
7:56 AM 30.0 °F 20.5 °F 26.1 °F 85% 29.61 in 10.0 mi ENE 11.5 mph - N/A   Clear
9:56 AM 32.0 °F 23.6 °F 27.0 °F 82% 29.57 in 10.0 mi East 10.4 mph - N/A   Clear
10:56 AM 39.0 °F 30.3 °F 30.0 °F 70% 29.55 in 10.0 mi East 16.1 mph - N/A   Clear
11:56 AM 42.1 °F 35.7 °F 30.0 °F 62% 29.52 in 10.0 mi East 11.5 mph - N/A   Clear
12:56 PM 44.1 °F 37.7 °F 30.0 °F 58% 29.48 in 10.0 mi East 12.7 mph - N/A   Clear
1:56 PM 46.0 °F 37.0 °F 30.9 °F 56% 29.44 in 10.0 mi East 27.6 mph 36.8 mph N/A   Clear
2:56 PM 46.9 °F - 33.1 °F 59% 29.42 in 10.0 mi ESE 17.3 mph 28.8 mph N/A   Clear
3:56 PM 48.0 °F - 34.0 °F 58% 29.39 in 10.0 mi ESE 21.9 mph 31.1 mph N/A   Clear
4:56 PM 46.9 °F - 34.0 °F 61% 29.36 in 10.0 mi ESE 18.4 mph 28.8 mph N/A   Clear
6:56 PM 45.0 °F 37.1 °F 34.0 °F 65% 29.30 in 10.0 mi East 19.6 mph - N/A   Clear
7:56 PM 44.1 °F 37.7 °F 33.1 °F 65% 29.28 in 10.0 mi East 12.7 mph - N/A   Mostly Cloudy
8:56 PM 42.1 °F 35.2 °F 32.0 °F 67% 29.27 in 10.0 mi ENE 12.7 mph - N/A   Overcast
9:56 PM 44.1 °F 37.1 °F 33.1 °F 65% 29.24 in 10.0 mi East 15.0 mph - N/A   Partly Cloudy
11:56 PM 44.1 °F 38.1 °F 34.0 °F 68% 29.21 in 10.0 mi East 11.5 mph - 0.00 in Rain Light Rain